Terug naar catalogus

SL-14 DEB

ActiefPO
NORAD 39974·DEBRIS·🇷🇺 Russia

Gelanceerd Aug 18, 1987 vanaf Plesetsk Cosmodrome

Loading…

Volgende Passages (komende 24 uur)

TLE

VersSource: Space-Track

Epoch: Sep 14, 2026, 13:25 UTC

1 39974U 87068DA  26257.55969324  .00001788  00000-0  86095-3 0  9991
2 39974  82.5393 352.9560 0017986 144.5143 229.3615 14.18226266630552

Volg SL-14 DEB in realtime met AllMySat

Download on the App Store